Location: Agus-us
(14.2247°N, 120.8593°E)
Time: 18:01:25
(UTC+00:00)

Cosmos 546 - Pass Details

Date: 13 December 2025
Orbit: 467 x 488 km, 50.6° (Epoch: 19 January)

Event Time Altitude Azimuth Distance (km) Brightness Sun altitude
Exits shadow 21:12:00 24° 312° (NW) 1,029 5.7 -14.4°
Maximum altitude 21:14:06 71° 233° (SW) 511 4.5 -13.9°
Drops below altitude 10° 21:17:49 10° 148° (SSE) 1,645 8.1 -13.0°
Sets 21:19:58 0° 146° (SSE) 2,519 9.2 -12.5°
